Time,TemperatureF,DewpointF,PressureIn,WindDirection,WindDirectionDegrees,WindSpeedMPH,WindSpeedGustMPH,Humidity,HourlyPrecipIn,Conditions,Clouds,dailyrainin,SolarRadiationWatts/m^2,SoftwareType,DateUTC
2013-02-06 00:02:00,32.7,28.4,29.73,NE,44,0.0,0.0,84,0.00,,,0.00,0,Wunderground v.1.15,2013-02-06 07:02:00,
2013-02-06 00:08:00,32.5,28.2,29.73,NE,44,0.0,0.0,84,0.00,,,0.00,0,Wunderground v.1.15,2013-02-06 07:08:00,
2013-02-06 00:14:00,32.3,28.0,29.73,NE,44,0.0,0.0,84,0.00,,,0.00,0,Wunderground v.1.15,2013-02-06 07:14:00,
2013-02-06 00:19:00,32.1,28.1,29.74,NE,44,3.0,3.0,85,0.00,,,0.00,0,Wunderground v.1.15,2013-02-06 07:19:00,
2013-02-06 00:25:00,32.3,28.3,29.74,NE,46,6.0,6.0,85,0.00,,,0.00,0,Wunderground v.1.15,2013-02-06 07:25:00,
2013-02-06 00:30:00,32.9,28.6,29.74,NE,51,3.0,4.0,84,0.00,,,0.00,0,Wunderground v.1.15,2013-02-06 07:30:00,
2013-02-06 00:36:00,32.9,28.6,29.74,NNE,28,5.0,5.0,84,0.00,,,0.00,0,Wunderground v.1.15,2013-02-06 07:36:00,
2013-02-06 00:41:00,33.0,28.4,29.74,NNE,29,2.0,3.0,83,0.00,,,0.00,0,Wunderground v.1.15,2013-02-06 07:41:00,
2013-02-06 00:46:00,33.4,28.8,29.75,NNE,29,5.0,5.0,83,0.00,,,0.00,0,Wunderground v.1.15,2013-02-06 07:46:00,
2013-02-06 00:52:00,33.4,28.5,29.75,NNW,346,6.0,6.0,82,0.00,,,0.00,0,Wunderground v.1.15,2013-02-06 07:52:00,
2013-02-06 00:57:00,33.5,28.0,29.75,NNW,329,5.0,10.0,80,0.00,,,0.00,0,Wunderground v.1.15,2013-02-06 07:57:00,
2013-02-06 01:03:00,33.7,27.9,29.74,NNW,331,11.0,11.0,79,0.00,,,0.00,0,Wunderground v.1.15,2013-02-06 08:03:00,
2013-02-06 01:08:00,33.7,27.3,29.74,NW,311,7.0,11.0,77,0.00,,,0.00,0,Wunderground v.1.15,2013-02-06 08:08:00,
2013-02-06 01:14:00,33.8,27.0,29.74,NW,323,5.0,13.0,76,0.00,,,0.00,0,Wunderground v.1.15,2013-02-06 08:14:00,
2013-02-06 01:19:00,33.5,26.7,29.74,NW,308,8.0,13.0,76,0.00,,,0.00,0,Wunderground v.1.15,2013-02-06 08:19:00,
2013-02-06 01:24:00,33.3,26.5,29.74,NNW,336,6.0,11.0,76,0.00,,,0.00,0,Wunderground v.1.15,2013-02-06 08:24:00,
2013-02-06 01:29:00,33.0,26.3,29.74,North,350,9.0,11.0,76,0.00,,,0.00,0,Wunderground v.1.15,2013-02-06 08:29:00,
2013-02-06 01:35:00,33.0,25.9,29.75,NNW,342,10.0,12.0,75,0.00,,,0.00,0,Wunderground v.1.15,2013-02-06 08:35:00,
2013-02-06 01:40:00,33.2,25.8,29.75,NW,325,9.0,9.0,74,0.00,,,0.00,0,Wunderground v.1.15,2013-02-06 08:40:00,
2013-02-06 01:45:00,33.3,25.6,29.75,NNW,330,10.0,13.0,73,0.00,,,0.00,0,Wunderground v.1.15,2013-02-06 08:45:00,
2013-02-06 01:50:00,33.4,25.3,29.76,NNW,330,9.0,10.0,72,0.00,,,0.00,0,Wunderground v.1.15,2013-02-06 08:50:00,
2013-02-06 01:55:00,33.3,24.6,29.76,NNW,336,10.0,17.0,70,0.00,,,0.00,0,Wunderground v.1.15,2013-02-06 08:55:00,
2013-02-06 02:01:00,33.0,23.9,29.76,NW,307,12.0,12.0,69,0.00,,,0.00,0,Wunderground v.1.15,2013-02-06 09:01:00,
2013-02-06 02:06:00,32.9,23.5,29.76,NW,313,9.0,16.0,68,0.00,,,0.00,0,Wunderground v.1.15,2013-02-06 09:06:00,
2013-02-06 02:11:00,33.0,23.6,29.76,NW,306,8.0,18.0,68,0.00,,,0.00,0,Wunderground v.1.15,2013-02-06 09:11:00,
2013-02-06 02:16:00,33.1,23.0,29.77,NW,305,13.0,18.0,66,0.00,,,0.00,0,Wunderground v.1.15,2013-02-06 09:16:00,
2013-02-06 02:21:00,33.1,23.0,29.77,NW,310,6.0,14.0,66,0.00,,,0.00,0,Wunderground v.1.15,2013-02-06 09:21:00,
2013-02-06 02:26:00,32.9,23.1,29.77,NW,311,7.0,14.0,67,0.00,,,0.00,0,Wunderground v.1.15,2013-02-06 09:26:00,
2013-02-06 02:31:00,32.7,22.9,29.77,NNW,330,3.0,8.0,67,0.00,,,0.00,0,Wunderground v.1.15,2013-02-06 09:31:00,
2013-02-06 02:36:00,32.5,23.1,29.77,NW,304,1.0,13.0,68,0.00,,,0.00,0,Wunderground v.1.15,2013-02-06 09:36:00,
2013-02-06 02:41:00,32.6,22.8,29.77,NNW,335,0.0,4.0,67,0.00,,,0.00,0,Wunderground v.1.15,2013-02-06 09:41:00,
2013-02-06 02:46:00,32.5,23.1,29.79,NE,35,2.0,5.0,68,0.00,,,0.00,0,Wunderground v.1.15,2013-02-06 09:46:00,
2013-02-06 02:51:00,32.2,23.5,29.79,ESE,102,4.0,5.0,70,0.00,,,0.00,0,Wunderground v.1.15,2013-02-06 09:51:00,
2013-02-06 02:56:00,32.1,23.4,29.79,East,98,5.0,8.0,70,0.00,,,0.00,0,Wunderground v.1.15,2013-02-06 09:56:00,
2013-02-06 03:01:00,32.2,23.2,29.79,NE,44,5.0,9.0,69,0.00,,,0.00,0,Wunderground v.1.15,2013-02-06 10:01:00,
2013-02-06 03:06:00,32.4,23.0,29.79,NE,52,2.0,11.0,68,0.00,,,0.00,0,Wunderground v.1.15,2013-02-06 10:06:00,
2013-02-06 03:11:00,32.4,23.0,29.79,ENE,71,1.0,5.0,68,0.00,,,0.00,0,Wunderground v.1.15,2013-02-06 10:11:00,
2013-02-06 03:16:00,32.3,23.3,29.78,ENE,71,1.0,5.0,69,0.00,,,0.00,0,Wunderground v.1.15,2013-02-06 10:16:00,
2013-02-06 03:21:00,32.2,23.2,29.78,ENE,71,0.0,1.0,69,0.00,,,0.00,0,Wunderground v.1.15,2013-02-06 10:21:00,
2013-02-06 03:26:00,32.0,23.0,29.78,ENE,71,0.0,1.0,69,0.00,,,0.00,0,Wunderground v.1.15,2013-02-06 10:26:00,
2013-02-06 03:32:00,31.9,22.9,29.77,ENE,71,0.0,0.0,69,0.00,,,0.00,0,Wunderground v.1.15,2013-02-06 10:32:00,
2013-02-06 03:37:00,31.7,22.7,29.77,ENE,71,0.0,0.0,69,0.00,,,0.00,0,Wunderground v.1.15,2013-02-06 10:37:00,
2013-02-06 03:42:00,31.5,22.8,29.77,ENE,71,0.0,0.0,70,0.00,,,0.00,0,Wunderground v.1.15,2013-02-06 10:42:00,
2013-02-06 03:47:00,31.3,22.6,29.77,ESE,119,1.0,5.0,70,0.00,,,0.00,0,Wunderground v.1.15,2013-02-06 10:47:00,
2013-02-06 03:52:00,31.1,22.5,29.77,ESE,118,0.0,1.0,70,0.00,,,0.00,0,Wunderground v.1.15,2013-02-06 10:52:00,
2013-02-06 03:57:00,30.5,22.2,29.77,SSE,168,0.0,6.0,71,0.00,,,0.00,0,Wunderground v.1.15,2013-02-06 10:57:00,
2013-02-06 04:02:00,30.2,22.3,29.77,SSE,168,3.0,5.0,72,0.00,,,0.00,0,Wunderground v.1.15,2013-02-06 11:02:00,
2013-02-06 04:07:00,30.1,22.2,29.77,West,269,3.0,6.0,72,0.00,,,0.00,0,Wunderground v.1.15,2013-02-06 11:07:00,
2013-02-06 04:12:00,29.6,22.0,29.77,WSW,257,2.0,8.0,73,0.00,,,0.00,0,Wunderground v.1.15,2013-02-06 11:12:00,
2013-02-06 04:17:00,29.6,22.3,29.77,WSW,257,1.0,8.0,74,0.00,,,0.00,0,Wunderground v.1.15,2013-02-06 11:17:00,
2013-02-06 04:22:00,29.4,22.5,29.77,SW,227,3.0,6.0,75,0.00,,,0.00,0,Wunderground v.1.15,2013-02-06 11:22:00,
2013-02-06 04:27:00,29.3,23.0,29.77,SW,225,4.0,6.0,77,0.00,,,0.00,0,Wunderground v.1.15,2013-02-06 11:27:00,
2013-02-06 04:32:00,29.2,23.2,29.77,SW,222,2.0,5.0,78,0.00,,,0.00,0,Wunderground v.1.15,2013-02-06 11:32:00,
2013-02-06 04:37:00,29.3,23.3,29.77,SW,223,2.0,5.0,78,0.00,,,0.00,0,Wunderground v.1.15,2013-02-06 11:37:00,
2013-02-06 04:42:00,29.5,23.5,29.77,SW,222,1.0,3.0,78,0.00,,,0.00,0,Wunderground v.1.15,2013-02-06 11:42:00,
2013-02-06 04:47:00,29.4,23.7,29.77,SW,221,5.0,5.0,79,0.00,,,0.00,0,Wunderground v.1.15,2013-02-06 11:47:00,
2013-02-06 04:52:00,29.1,23.4,29.77,SSW,193,3.0,5.0,79,0.00,,,0.00,0,Wunderground v.1.15,2013-02-06 11:52:00,
2013-02-06 04:57:00,28.8,23.1,29.77,SSW,192,0.0,5.0,79,0.00,,,0.00,0,Wunderground v.1.15,2013-02-06 11:57:00,
2013-02-06 05:02:00,28.2,22.5,29.78,WNW,298,3.0,5.0,79,0.00,,,0.00,0,Wunderground v.1.15,2013-02-06 12:02:00,
2013-02-06 05:07:00,27.9,22.5,29.78,WNW,298,0.0,5.0,80,0.00,,,0.00,0,Wunderground v.1.15,2013-02-06 12:07:00,
2013-02-06 05:12:00,27.6,22.2,29.78,WNW,298,0.0,1.0,80,0.00,,,0.00,0,Wunderground v.1.15,2013-02-06 12:12:00,
2013-02-06 05:17:00,27.4,22.0,29.77,WNW,298,2.0,4.0,80,0.00,,,0.00,0,Wunderground v.1.15,2013-02-06 12:17:00,
2013-02-06 05:22:00,27.2,22.1,29.77,WNW,298,0.0,1.0,81,0.00,,,0.00,0,Wunderground v.1.15,2013-02-06 12:22:00,
2013-02-06 05:27:00,27.0,21.9,29.77,WNW,291,2.0,5.0,81,0.00,,,0.00,0,Wunderground v.1.15,2013-02-06 12:27:00,
2013-02-06 05:32:00,26.9,21.8,29.78,WNW,291,1.0,3.0,81,0.00,,,0.00,0,Wunderground v.1.15,2013-02-06 12:32:00,
2013-02-06 05:37:00,26.7,21.7,29.78,WNW,291,0.0,4.0,81,0.00,,,0.00,0,Wunderground v.1.15,2013-02-06 12:37:00,
2013-02-06 05:42:00,26.6,21.8,29.78,WNW,291,0.0,1.0,82,0.00,,,0.00,0,Wunderground v.1.15,2013-02-06 12:42:00,
2013-02-06 05:47:00,26.5,21.7,29.78,WNW,291,0.0,1.0,82,0.00,,,0.00,0,Wunderground v.1.15,2013-02-06 12:47:00,
2013-02-06 05:52:00,26.2,21.5,29.78,WNW,291,0.0,0.0,82,0.00,,,0.00,0,Wunderground v.1.15,2013-02-06 12:52:00,
2013-02-06 05:57:00,26.0,21.3,29.78,WNW,291,0.0,0.0,82,0.00,,,0.00,0,Wunderground v.1.15,2013-02-06 12:57:00,
2013-02-06 06:02:00,25.8,21.3,29.78,WNW,291,2.0,2.0,83,0.00,,,0.00,0,Wunderground v.1.15,2013-02-06 13:02:00,
2013-02-06 06:07:00,26.0,21.5,29.78,WNW,291,1.0,3.0,83,0.00,,,0.00,0,Wunderground v.1.15,2013-02-06 13:07:00,
2013-02-06 06:12:00,26.1,21.9,29.78,WNW,291,0.0,2.0,84,0.00,,,0.00,0,Wunderground v.1.15,2013-02-06 13:12:00,
2013-02-06 06:17:00,26.2,22.0,29.78,WNW,291,2.0,5.0,84,0.00,,,0.00,0,Wunderground v.1.15,2013-02-06 13:17:00,
2013-02-06 06:22:00,26.1,21.9,29.78,WNW,291,0.0,3.0,84,0.00,,,0.00,0,Wunderground v.1.15,2013-02-06 13:22:00,
2013-02-06 06:27:00,26.0,21.8,29.78,WNW,291,0.0,3.0,84,0.00,,,0.00,0,Wunderground v.1.15,2013-02-06 13:27:00,
2013-02-06 06:32:00,26.0,21.8,29.78,WNW,297,3.0,4.0,84,0.00,,,0.00,0,Wunderground v.1.15,2013-02-06 13:32:00,
2013-02-06 06:37:00,25.7,21.5,29.78,NW,319,0.0,4.0,84,0.00,,,0.00,0,Wunderground v.1.15,2013-02-06 13:37:00,
2013-02-06 06:42:00,25.4,21.2,29.78,NW,319,0.0,1.0,84,0.00,,,0.00,0,Wunderground v.1.15,2013-02-06 13:42:00,
2013-02-06 06:47:00,25.5,21.3,29.79,NW,319,0.0,2.0,84,0.00,,,0.00,0,Wunderground v.1.15,2013-02-06 13:47:00,
2013-02-06 06:52:00,25.6,21.4,29.79,NW,319,0.0,0.0,84,0.00,,,0.00,0,Wunderground v.1.15,2013-02-06 13:52:00,
2013-02-06 06:57:00,25.3,21.1,29.79,NW,319,0.0,3.0,84,0.00,,,0.00,0,Wunderground v.1.15,2013-02-06 13:57:00,
2013-02-06 07:03:00,25.1,20.9,29.79,NW,318,0.0,0.0,84,0.00,,,0.00,0,Wunderground v.1.15,2013-02-06 14:03:00,
2013-02-06 07:08:00,24.9,20.8,29.79,NW,319,0.0,2.0,84,0.00,,,0.00,0,Wunderground v.1.15,2013-02-06 14:08:00,
2013-02-06 07:13:00,24.8,20.7,29.79,NW,319,0.0,0.0,84,0.00,,,0.00,0,Wunderground v.1.15,2013-02-06 14:13:00,
2013-02-06 07:18:00,24.4,20.3,29.80,NW,318,0.0,1.0,84,0.00,,,0.00,0,Wunderground v.1.15,2013-02-06 14:18:00,
2013-02-06 07:23:00,24.5,20.6,29.80,NW,319,3.0,3.0,85,0.00,,,0.00,0,Wunderground v.1.15,2013-02-06 14:23:00,
2013-02-06 07:28:00,25.1,21.2,29.80,NW,319,3.0,5.0,85,0.00,,,0.00,0,Wunderground v.1.15,2013-02-06 14:28:00,
2013-02-06 07:34:00,25.1,20.9,29.80,NW,319,3.0,4.0,84,0.00,,,0.00,0,Wunderground v.1.15,2013-02-06 14:34:00,
2013-02-06 07:39:00,25.3,21.1,29.80,NW,318,0.0,5.0,84,0.00,,,0.00,0,Wunderground v.1.15,2013-02-06 14:39:00,
2013-02-06 07:44:00,25.5,21.1,29.80,NW,319,0.0,2.0,83,0.00,,,0.00,0,Wunderground v.1.15,2013-02-06 14:44:00,
2013-02-06 07:49:00,25.0,20.3,29.81,NW,318,4.0,4.0,82,0.00,,,0.00,5,Wunderground v.1.15,2013-02-06 14:49:00,
2013-02-06 07:54:00,24.7,20.0,29.81,NW,318,0.0,2.0,82,0.00,,,0.00,7,Wunderground v.1.15,2013-02-06 14:54:00,
2013-02-06 07:59:00,24.7,20.0,29.81,NW,319,0.0,2.0,82,0.00,,,0.00,9,Wunderground v.1.15,2013-02-06 14:59:00,
2013-02-06 08:04:00,24.9,20.5,29.81,NW,318,0.0,2.0,83,0.00,,,0.00,12,Wunderground v.1.15,2013-02-06 15:04:00,
2013-02-06 08:09:00,25.0,20.6,29.81,NW,319,0.0,2.0,83,0.00,,,0.00,16,Wunderground v.1.15,2013-02-06 15:09:00,
2013-02-06 08:14:00,25.0,20.6,29.81,NW,319,0.0,3.0,83,0.00,,,0.00,18,Wunderground v.1.15,2013-02-06 15:14:00,
2013-02-06 08:19:00,24.9,20.5,29.82,NW,319,0.0,3.0,83,0.00,,,0.00,28,Wunderground v.1.15,2013-02-06 15:19:00,
2013-02-06 08:24:00,24.9,20.5,29.82,NW,318,0.0,0.0,83,0.00,,,0.00,62,Wunderground v.1.15,2013-02-06 15:24:00,
2013-02-06 08:29:00,25.0,20.8,29.82,NW,319,0.0,4.0,84,0.00,,,0.00,65,Wunderground v.1.15,2013-02-06 15:29:00,
2013-02-06 08:34:00,25.1,20.9,29.82,NW,318,0.0,0.0,84,0.00,,,0.00,65,Wunderground v.1.15,2013-02-06 15:34:00,
2013-02-06 08:39:00,25.2,21.0,29.82,NW,319,0.0,0.0,84,0.00,,,0.00,69,Wunderground v.1.15,2013-02-06 15:39:00,
2013-02-06 08:44:00,25.3,21.1,29.82,NW,319,0.0,0.0,84,0.00,,,0.00,90,Wunderground v.1.15,2013-02-06 15:44:00,
2013-02-06 08:49:00,25.9,22.0,29.82,NW,319,0.0,0.0,85,0.00,,,0.00,69,Wunderground v.1.15,2013-02-06 15:49:00,
2013-02-06 08:54:00,26.4,22.5,29.82,NW,318,0.0,0.0,85,0.00,,,0.00,77,Wunderground v.1.15,2013-02-06 15:54:00,
2013-02-06 08:59:00,26.8,22.9,29.82,NW,318,0.0,1.0,85,0.00,,,0.00,49,Wunderground v.1.15,2013-02-06 15:59:00,
2013-02-06 09:04:00,27.3,23.4,29.84,NW,319,0.0,0.0,85,0.00,,,0.00,42,Wunderground v.1.15,2013-02-06 16:04:00,
2013-02-06 09:09:00,27.3,23.4,29.84,NW,318,0.0,2.0,85,0.00,,,0.00,37,Wunderground v.1.15,2013-02-06 16:09:00,
2013-02-06 09:14:00,27.4,23.5,29.84,NW,319,0.0,0.0,85,0.00,,,0.00,40,Wunderground v.1.15,2013-02-06 16:14:00,
2013-02-06 09:19:00,27.4,23.2,29.85,NW,319,0.0,0.0,84,0.00,,,0.00,39,Wunderground v.1.15,2013-02-06 16:19:00,
2013-02-06 09:24:00,27.6,23.4,29.85,NW,318,0.0,0.0,84,0.00,,,0.00,47,Wunderground v.1.15,2013-02-06 16:24:00,
2013-02-06 09:29:00,27.8,23.6,29.85,NW,318,0.0,0.0,84,0.00,,,0.00,56,Wunderground v.1.15,2013-02-06 16:29:00,
2013-02-06 09:34:00,28.1,24.2,29.86,NW,319,0.0,0.0,85,0.00,,,0.00,81,Wunderground v.1.15,2013-02-06 16:34:00,
2013-02-06 09:39:00,28.5,24.3,29.86,NW,318,1.0,1.0,84,0.00,,,0.00,132,Wunderground v.1.15,2013-02-06 16:39:00,
2013-02-06 09:44:00,28.8,24.9,29.86,NW,318,0.0,0.0,85,0.00,,,0.00,199,Wunderground v.1.15,2013-02-06 16:44:00,
2013-02-06 09:49:00,29.2,25.3,29.86,ESE,117,2.0,5.0,85,0.00,,,0.00,128,Wunderground v.1.15,2013-02-06 16:49:00,
2013-02-06 09:54:00,29.2,25.3,29.86,ESE,116,0.0,3.0,85,0.00,,,0.00,93,Wunderground v.1.15,2013-02-06 16:54:00,
2013-02-06 09:59:00,29.4,25.4,29.86,ESE,121,2.0,4.0,85,0.00,,,0.00,90,Wunderground v.1.15,2013-02-06 16:59:00,
2013-02-06 10:04:00,29.4,25.7,29.86,WSW,248,4.0,8.0,86,0.00,,,0.00,125,Wunderground v.1.15,2013-02-06 17:04:00,
2013-02-06 10:09:00,29.7,26.0,29.86,West,260,2.0,8.0,86,0.00,,,0.00,121,Wunderground v.1.15,2013-02-06 17:09:00,
2013-02-06 10:14:00,30.1,26.4,29.86,NNW,332,5.0,5.0,86,0.00,,,0.00,104,Wunderground v.1.15,2013-02-06 17:14:00,
2013-02-06 10:19:00,30.2,26.2,29.87,NNW,348,3.0,7.0,85,0.00,,,0.00,218,Wunderground v.1.15,2013-02-06 17:19:00,
2013-02-06 10:24:00,30.5,26.5,29.87,NNW,348,2.0,8.0,85,0.00,,,0.00,306,Wunderground v.1.15,2013-02-06 17:24:00,
2013-02-06 10:29:00,31.0,26.7,29.87,North,355,0.0,8.0,84,0.00,,,0.00,135,Wunderground v.1.15,2013-02-06 17:29:00,
2013-02-06 10:34:00,31.1,26.5,29.87,North,355,0.0,3.0,83,0.00,,,0.00,135,Wunderground v.1.15,2013-02-06 17:34:00,
2013-02-06 10:39:00,31.1,26.2,29.87,North,355,0.0,3.0,82,0.00,,,0.00,139,Wunderground v.1.15,2013-02-06 17:39:00,
2013-02-06 10:44:00,31.3,26.4,29.87,North,355,0.0,0.0,82,0.00,,,0.00,169,Wunderground v.1.15,2013-02-06 17:44:00,
2013-02-06 10:49:00,31.6,26.4,29.87,North,355,0.0,0.0,81,0.00,,,0.00,239,Wunderground v.1.15,2013-02-06 17:49:00,
2013-02-06 10:54:00,31.9,26.7,29.87,North,355,0.0,2.0,81,0.00,,,0.00,211,Wunderground v.1.15,2013-02-06 17:54:00,
2013-02-06 10:59:00,32.1,26.9,29.87,North,355,0.0,3.0,81,0.00,,,0.00,290,Wunderground v.1.15,2013-02-06 17:59:00,
2013-02-06 11:04:00,32.3,27.1,29.87,North,355,0.0,0.0,81,0.00,,,0.00,258,Wunderground v.1.15,2013-02-06 18:04:00,
2013-02-06 11:09:00,32.6,27.4,29.87,North,355,0.0,0.0,81,0.00,,,0.00,267,Wunderground v.1.15,2013-02-06 18:09:00,
2013-02-06 11:14:00,32.9,27.4,29.87,North,355,0.0,1.0,80,0.00,,,0.00,250,Wunderground v.1.15,2013-02-06 18:14:00,
2013-02-06 11:19:00,33.3,27.8,29.87,North,355,0.0,1.0,80,0.00,,,0.00,267,Wunderground v.1.15,2013-02-06 18:19:00,
2013-02-06 11:24:00,33.7,27.9,29.87,North,355,0.0,0.0,79,0.00,,,0.00,227,Wunderground v.1.15,2013-02-06 18:24:00,
2013-02-06 11:29:00,34.0,27.9,29.87,North,355,0.0,3.0,78,0.00,,,0.00,211,Wunderground v.1.15,2013-02-06 18:29:00,
2013-02-06 11:34:00,34.1,28.0,29.87,North,355,1.0,4.0,78,0.00,,,0.00,262,Wunderground v.1.15,2013-02-06 18:34:00,
2013-02-06 11:39:00,34.4,27.9,29.87,North,360,4.0,4.0,77,0.00,,,0.00,229,Wunderground v.1.15,2013-02-06 18:39:00,
2013-02-06 11:45:00,34.4,27.9,29.87,North,360,0.0,5.0,77,0.00,,,0.00,141,Wunderground v.1.15,2013-02-06 18:45:00,
2013-02-06 11:50:00,33.8,27.4,29.88,NNE,28,3.0,3.0,77,0.00,,,0.00,149,Wunderground v.1.15,2013-02-06 18:50:00,
2013-02-06 11:55:00,33.5,27.1,29.88,NNE,13,0.0,5.0,77,0.00,,,0.00,179,Wunderground v.1.15,2013-02-06 18:55:00,
2013-02-06 12:00:00,33.4,27.0,29.88,NNE,13,3.0,3.0,77,0.00,,,0.00,195,Wunderground v.1.15,2013-02-06 19:00:00,
2013-02-06 12:05:00,33.5,27.1,29.88,North,5,4.0,7.0,77,0.00,,,0.00,151,Wunderground v.1.15,2013-02-06 19:05:00,
2013-02-06 12:10:00,33.5,27.1,29.88,NNW,339,4.0,7.0,77,0.00,,,0.00,141,Wunderground v.1.15,2013-02-06 19:10:00,
2013-02-06 12:15:00,33.5,26.7,29.88,NNW,347,1.0,7.0,76,0.00,,,0.00,141,Wunderground v.1.15,2013-02-06 19:15:00,
2013-02-06 12:20:00,33.6,26.8,29.88,North,360,2.0,3.0,76,0.00,,,0.00,144,Wunderground v.1.15,2013-02-06 19:20:00,
2013-02-06 12:25:00,33.7,26.9,29.88,North,360,1.0,4.0,76,0.00,,,0.00,141,Wunderground v.1.15,2013-02-06 19:25:00,
2013-02-06 12:30:00,33.8,27.0,29.87,NNE,19,0.0,4.0,76,0.00,,,0.00,127,Wunderground v.1.15,2013-02-06 19:30:00,
2013-02-06 12:35:00,33.8,27.0,29.87,NNE,19,2.0,4.0,76,0.00,,,0.00,113,Wunderground v.1.15,2013-02-06 19:35:00,
2013-02-06 12:40:00,33.7,26.6,29.87,NNE,21,0.0,1.0,75,0.00,,,0.00,125,Wunderground v.1.15,2013-02-06 19:40:00,
2013-02-06 12:45:00,33.7,26.9,29.86,NNE,21,0.0,1.0,76,0.00,,,0.00,144,Wunderground v.1.15,2013-02-06 19:45:00,
2013-02-06 12:50:00,33.6,26.8,29.86,NNE,19,0.0,0.0,76,0.00,,,0.00,195,Wunderground v.1.15,2013-02-06 19:50:00,
2013-02-06 12:55:00,33.6,26.5,29.86,ENE,64,0.0,3.0,75,0.00,,,0.00,165,Wunderground v.1.15,2013-02-06 19:55:00,
2013-02-06 13:00:00,33.8,26.7,29.88,ENE,64,0.0,0.0,75,0.00,,,0.00,211,Wunderground v.1.15,2013-02-06 20:00:00,
2013-02-06 13:05:00,34.1,27.0,29.88,ENE,64,0.0,0.0,75,0.00,,,0.00,397,Wunderground v.1.15,2013-02-06 20:05:00,
2013-02-06 13:10:00,34.6,27.8,29.88,SE,144,4.0,5.0,76,0.00,,,0.00,121,Wunderground v.1.15,2013-02-06 20:10:00,
2013-02-06 13:15:00,34.4,27.6,29.86,SSE,157,2.0,6.0,76,0.00,,,0.00,113,Wunderground v.1.15,2013-02-06 20:15:00,
2013-02-06 13:20:00,33.9,27.1,29.86,South,177,6.0,6.0,76,0.00,,,0.00,104,Wunderground v.1.15,2013-02-06 20:20:00,
2013-02-06 13:25:00,33.6,27.2,29.86,SSW,195,4.0,8.0,77,0.00,,,0.00,142,Wunderground v.1.15,2013-02-06 20:25:00,
2013-02-06 13:30:00,33.3,26.9,29.86,SSW,206,2.0,6.0,77,0.00,,,0.00,141,Wunderground v.1.15,2013-02-06 20:30:00,
2013-02-06 13:35:00,33.2,27.1,29.86,WSW,240,2.0,12.0,78,0.00,,,0.00,220,Wunderground v.1.15,2013-02-06 20:35:00,
2013-02-06 13:40:00,33.6,28.1,29.86,WSW,257,5.0,6.0,80,0.00,,,0.00,519,Wunderground v.1.15,2013-02-06 20:40:00,
2013-02-06 13:45:00,34.8,29.0,29.85,SW,230,7.0,13.0,79,0.00,,,0.00,661,Wunderground v.1.15,2013-02-06 20:45:00,
2013-02-06 13:50:00,36.4,29.9,29.85,West,261,6.0,8.0,77,0.00,,,0.00,606,Wunderground v.1.15,2013-02-06 20:50:00,
2013-02-06 13:55:00,38.1,28.5,29.85,SSW,211,5.0,11.0,68,0.00,,,0.00,606,Wunderground v.1.15,2013-02-06 20:55:00,
2013-02-06 14:00:00,38.9,28.9,29.86,NNW,337,11.0,11.0,67,0.00,,,0.00,619,Wunderground v.1.15,2013-02-06 21:00:00,
2013-02-06 14:05:00,38.1,28.1,29.86,NW,311,7.0,12.0,67,0.00,,,0.00,313,Wunderground v.1.15,2013-02-06 21:05:00,
2013-02-06 14:10:00,37.7,27.7,29.86,NNW,334,7.0,9.0,67,0.00,,,0.00,533,Wunderground v.1.15,2013-02-06 21:10:00,
2013-02-06 14:15:00,38.9,28.9,29.87,West,265,3.0,14.0,67,0.00,,,0.00,570,Wunderground v.1.15,2013-02-06 21:15:00,
2013-02-06 14:20:00,38.8,28.0,29.87,WNW,294,8.0,8.0,65,0.00,,,0.00,353,Wunderground v.1.15,2013-02-06 21:20:00,
2013-02-06 14:25:00,38.6,28.2,29.87,WSW,258,6.0,11.0,66,0.00,,,0.00,343,Wunderground v.1.15,2013-02-06 21:25:00,
2013-02-06 14:30:00,37.4,27.4,29.86,WSW,247,7.0,8.0,67,0.00,,,0.00,506,Wunderground v.1.15,2013-02-06 21:30:00,
2013-02-06 14:35:00,37.8,28.2,29.86,West,263,4.0,8.0,68,0.00,,,0.00,520,Wunderground v.1.15,2013-02-06 21:35:00,
2013-02-06 14:40:00,38.0,27.3,29.86,WSW,249,3.0,4.0,65,0.00,,,0.00,443,Wunderground v.1.15,2013-02-06 21:40:00,
2013-02-06 14:46:00,38.3,27.2,29.86,WNW,294,4.0,5.0,64,0.00,,,0.00,541,Wunderground v.1.15,2013-02-06 21:46:00,
2013-02-06 14:51:00,40.7,28.7,29.86,WNW,295,0.0,6.0,62,0.00,,,0.00,483,Wunderground v.1.15,2013-02-06 21:51:00,
2013-02-06 14:56:00,41.6,28.7,29.86,WSW,238,4.0,6.0,60,0.00,,,0.00,434,Wunderground v.1.15,2013-02-06 21:56:00,
2013-02-06 15:01:00,40.2,27.0,29.86,NW,311,3.0,6.0,59,0.00,,,0.00,193,Wunderground v.1.15,2013-02-06 22:01:00,
2013-02-06 15:06:00,39.8,26.6,29.86,NNW,337,0.0,6.0,59,0.00,,,0.00,165,Wunderground v.1.15,2013-02-06 22:06:00,
2013-02-06 15:11:00,39.4,26.7,29.86,NNE,24,2.0,5.0,60,0.00,,,0.00,206,Wunderground v.1.15,2013-02-06 22:11:00,
2013-02-06 15:16:00,38.9,26.2,29.87,NE,36,0.0,5.0,60,0.00,,,0.00,186,Wunderground v.1.15,2013-02-06 22:16:00,
2013-02-06 15:21:00,38.2,25.9,29.87,East,92,1.0,2.0,61,0.00,,,0.00,132,Wunderground v.1.15,2013-02-06 22:21:00,
2013-02-06 15:26:00,37.6,25.7,29.87,ESE,107,2.0,4.0,62,0.00,,,0.00,229,Wunderground v.1.15,2013-02-06 22:26:00,
2013-02-06 15:31:00,37.6,25.4,29.87,SE,128,3.0,5.0,61,0.00,,,0.00,190,Wunderground v.1.15,2013-02-06 22:31:00,
2013-02-06 15:36:00,37.3,25.1,29.87,SE,130,3.0,5.0,61,0.00,,,0.00,81,Wunderground v.1.15,2013-02-06 22:36:00,
2013-02-06 15:41:00,36.9,24.7,29.87,SE,130,0.0,3.0,61,0.00,,,0.00,158,Wunderground v.1.15,2013-02-06 22:41:00,
2013-02-06 15:46:00,37.2,25.8,29.88,SE,129,0.0,3.0,63,0.00,,,0.00,130,Wunderground v.1.15,2013-02-06 22:46:00,
2013-02-06 15:51:00,37.9,24.8,29.88,SE,130,0.0,0.0,59,0.00,,,0.00,114,Wunderground v.1.15,2013-02-06 22:51:00,
2013-02-06 15:56:00,38.1,24.6,29.88,SE,130,0.0,0.0,58,0.00,,,0.00,281,Wunderground v.1.15,2013-02-06 22:56:00,
2013-02-06 16:01:00,38.3,24.8,29.88,SE,130,0.0,2.0,58,0.00,,,0.00,243,Wunderground v.1.15,2013-02-06 23:01:00,
2013-02-06 16:06:00,39.0,24.6,29.88,SE,129,0.0,4.0,56,0.00,,,0.00,132,Wunderground v.1.15,2013-02-06 23:06:00,
2013-02-06 16:11:00,39.3,24.9,29.88,SE,130,0.0,0.0,56,0.00,,,0.00,202,Wunderground v.1.15,2013-02-06 23:11:00,
2013-02-06 16:16:00,39.8,24.9,29.88,SE,130,0.0,1.0,55,0.00,,,0.00,149,Wunderground v.1.15,2013-02-06 23:16:00,
2013-02-06 16:21:00,39.6,24.7,29.88,SE,129,0.0,1.0,55,0.00,,,0.00,54,Wunderground v.1.15,2013-02-06 23:21:00,
2013-02-06 16:26:00,39.7,24.4,29.88,SE,129,2.0,3.0,54,0.00,,,0.00,144,Wunderground v.1.15,2013-02-06 23:26:00,
2013-02-06 16:31:00,40.3,25.0,29.88,SE,124,0.0,4.0,54,0.00,,,0.00,107,Wunderground v.1.15,2013-02-06 23:31:00,
2013-02-06 16:37:00,40.1,24.8,29.88,ESE,121,0.0,4.0,54,0.00,,,0.00,54,Wunderground v.1.15,2013-02-06 23:37:00,
2013-02-06 16:42:00,39.4,24.1,29.88,ENE,57,3.0,4.0,54,0.00,,,0.00,54,Wunderground v.1.15,2013-02-06 23:42:00,
2013-02-06 16:47:00,38.6,24.7,29.88,NE,53,0.0,6.0,57,0.00,,,0.00,58,Wunderground v.1.15,2013-02-06 23:47:00,
2013-02-06 16:52:00,38.2,24.7,29.88,NE,55,0.0,3.0,58,0.00,,,0.00,49,Wunderground v.1.15,2013-02-06 23:52:00,
2013-02-06 16:57:00,37.8,24.7,29.88,ENE,67,3.0,7.0,59,0.00,,,0.00,42,Wunderground v.1.15,2013-02-06 23:57:00,
2013-02-06 17:02:00,37.5,24.9,29.89,ENE,70,3.0,7.0,60,0.00,,,0.00,47,Wunderground v.1.15,2013-02-07 00:02:00,
2013-02-06 17:07:00,37.3,25.1,29.89,ENE,70,0.0,7.0,61,0.00,,,0.00,46,Wunderground v.1.15,2013-02-07 00:07:00,
2013-02-06 17:12:00,37.2,25.4,29.89,ENE,70,3.0,5.0,62,0.00,,,0.00,44,Wunderground v.1.15,2013-02-07 00:12:00,
2013-02-06 17:17:00,36.9,25.1,29.89,ENE,70,2.0,5.0,62,0.00,,,0.00,39,Wunderground v.1.15,2013-02-07 00:17:00,
2013-02-06 17:22:00,36.7,24.9,29.89,ENE,69,0.0,4.0,62,0.00,,,0.00,21,Wunderground v.1.15,2013-02-07 00:22:00,
2013-02-06 17:27:00,36.3,24.9,29.89,ENE,70,2.0,4.0,63,0.00,,,0.00,12,Wunderground v.1.15,2013-02-07 00:27:00,
2013-02-06 17:32:00,36.0,24.2,29.90,ENE,70,0.0,0.0,62,0.00,,,0.00,9,Wunderground v.1.15,2013-02-07 00:32:00,
2013-02-06 17:37:00,35.7,24.3,29.90,ENE,69,0.0,0.0,63,0.00,,,0.00,5,Wunderground v.1.15,2013-02-07 00:37:00,
2013-02-06 17:42:00,35.2,24.2,29.90,NNE,25,2.0,5.0,64,0.00,,,0.00,0,Wunderground v.1.15,2013-02-07 00:42:00,
2013-02-06 17:47:00,34.6,24.0,29.91,NNE,24,0.0,5.0,65,0.00,,,0.00,0,Wunderground v.1.15,2013-02-07 00:47:00,
2013-02-06 17:52:00,34.1,23.9,29.91,North,355,0.0,4.0,66,0.00,,,0.00,0,Wunderground v.1.15,2013-02-07 00:52:00,
2013-02-06 17:57:00,33.4,23.6,29.91,North,350,0.0,4.0,67,0.00,,,0.00,0,Wunderground v.1.15,2013-02-07 00:57:00,
2013-02-06 18:02:00,32.8,23.0,29.92,North,350,0.0,1.0,67,0.00,,,0.00,0,Wunderground v.1.15,2013-02-07 01:02:00,
2013-02-06 18:07:00,32.3,22.6,29.92,North,350,0.0,4.0,67,0.00,,,0.00,0,Wunderground v.1.15,2013-02-07 01:07:00,
2013-02-06 18:12:00,31.6,22.6,29.92,North,349,2.0,3.0,69,0.00,,,0.00,0,Wunderground v.1.15,2013-02-07 01:12:00,
2013-02-06 18:17:00,31.4,22.4,29.92,NW,323,5.0,5.0,69,0.00,,,0.00,0,Wunderground v.1.15,2013-02-07 01:17:00,
2013-02-06 18:22:00,31.6,22.9,29.92,WNW,298,0.0,2.0,70,0.00,,,0.00,0,Wunderground v.1.15,2013-02-07 01:22:00,
2013-02-06 18:27:00,31.4,22.4,29.92,WNW,298,0.0,2.0,69,0.00,,,0.00,0,Wunderground v.1.15,2013-02-07 01:27:00,
2013-02-06 18:32:00,30.9,21.9,29.93,WNW,297,0.0,1.0,69,0.00,,,0.00,0,Wunderground v.1.15,2013-02-07 01:32:00,
2013-02-06 18:37:00,30.7,22.4,29.93,WNW,296,0.0,1.0,71,0.00,,,0.00,0,Wunderground v.1.15,2013-02-07 01:37:00,
2013-02-06 18:42:00,30.3,22.7,29.93,WNW,296,0.0,1.0,73,0.00,,,0.00,0,Wunderground v.1.15,2013-02-07 01:42:00,
2013-02-06 18:47:00,30.2,22.9,29.93,WNW,297,1.0,2.0,74,0.00,,,0.00,0,Wunderground v.1.15,2013-02-07 01:47:00,
2013-02-06 18:52:00,29.9,22.0,29.93,WNW,284,0.0,4.0,72,0.00,,,0.00,0,Wunderground v.1.15,2013-02-07 01:52:00,
2013-02-06 18:57:00,29.8,21.9,29.93,WNW,283,0.0,4.0,72,0.00,,,0.00,0,Wunderground v.1.15,2013-02-07 01:57:00,
2013-02-06 19:02:00,29.8,22.2,29.93,WNW,283,0.0,1.0,73,0.00,,,0.00,0,Wunderground v.1.15,2013-02-07 02:02:00,
2013-02-06 19:07:00,29.8,22.5,29.93,WNW,283,2.0,4.0,74,0.00,,,0.00,0,Wunderground v.1.15,2013-02-07 02:07:00,
2013-02-06 19:12:00,29.8,22.5,29.93,WNW,283,0.0,1.0,74,0.00,,,0.00,0,Wunderground v.1.15,2013-02-07 02:12:00,
2013-02-06 19:17:00,29.6,22.3,29.93,WNW,283,0.0,1.0,74,0.00,,,0.00,0,Wunderground v.1.15,2013-02-07 02:17:00,
2013-02-06 19:22:00,29.1,22.2,29.93,WNW,283,0.0,1.0,75,0.00,,,0.00,0,Wunderground v.1.15,2013-02-07 02:22:00,
2013-02-06 19:27:00,28.8,22.2,29.93,WNW,283,0.0,4.0,76,0.00,,,0.00,0,Wunderground v.1.15,2013-02-07 02:27:00,
2013-02-06 19:32:00,28.5,22.2,29.94,WNW,283,0.0,1.0,77,0.00,,,0.00,0,Wunderground v.1.15,2013-02-07 02:32:00,
2013-02-06 19:37:00,28.1,21.8,29.94,WNW,283,1.0,4.0,77,0.00,,,0.00,0,Wunderground v.1.15,2013-02-07 02:37:00,
2013-02-06 19:42:00,27.9,21.9,29.94,WNW,283,0.0,1.0,78,0.00,,,0.00,0,Wunderground v.1.15,2013-02-07 02:42:00,
2013-02-06 19:47:00,27.5,21.5,29.94,WNW,284,0.0,1.0,78,0.00,,,0.00,0,Wunderground v.1.15,2013-02-07 02:47:00,
2013-02-06 19:52:00,27.2,21.5,29.94,WNW,284,0.0,0.0,79,0.00,,,0.00,0,Wunderground v.1.15,2013-02-07 02:52:00,
2013-02-06 19:57:00,27.0,21.7,29.94,WNW,283,0.0,0.0,80,0.00,,,0.00,0,Wunderground v.1.15,2013-02-07 02:57:00,
2013-02-06 20:02:00,26.8,21.5,29.94,WNW,283,0.0,1.0,80,0.00,,,0.00,0,Wunderground v.1.15,2013-02-07 03:02:00,
2013-02-06 20:07:00,26.1,20.8,29.94,WNW,284,2.0,4.0,80,0.00,,,0.00,0,Wunderground v.1.15,2013-02-07 03:07:00,
2013-02-06 20:12:00,25.7,20.7,29.94,WNW,284,0.0,3.0,81,0.00,,,0.00,0,Wunderground v.1.15,2013-02-07 03:12:00,
2013-02-06 20:17:00,25.6,20.9,29.95,WNW,284,0.0,3.0,82,0.00,,,0.00,0,Wunderground v.1.15,2013-02-07 03:17:00,
2013-02-06 20:22:00,25.5,20.8,29.95,WNW,283,0.0,0.0,82,0.00,,,0.00,0,Wunderground v.1.15,2013-02-07 03:22:00,
2013-02-06 20:27:00,25.6,20.9,29.95,WNW,283,0.0,1.0,82,0.00,,,0.00,0,Wunderground v.1.15,2013-02-07 03:27:00,
2013-02-06 20:32:00,25.7,21.3,29.95,WNW,283,0.0,0.0,83,0.00,,,0.00,0,Wunderground v.1.15,2013-02-07 03:32:00,
2013-02-06 20:37:00,25.6,20.9,29.95,WNW,284,0.0,1.0,82,0.00,,,0.00,0,Wunderground v.1.15,2013-02-07 03:37:00,
2013-02-06 20:42:00,25.4,20.7,29.95,WNW,283,0.0,0.0,82,0.00,,,0.00,0,Wunderground v.1.15,2013-02-07 03:42:00,
2013-02-06 20:47:00,25.2,20.5,29.95,WNW,284,0.0,1.0,82,0.00,,,0.00,0,Wunderground v.1.15,2013-02-07 03:47:00,
2013-02-06 20:53:00,24.8,20.1,29.95,WNW,283,2.0,2.0,82,0.00,,,0.00,0,Wunderground v.1.15,2013-02-07 03:53:00,
2013-02-06 20:58:00,24.8,20.4,29.95,WNW,283,1.0,2.0,83,0.00,,,0.00,0,Wunderground v.1.15,2013-02-07 03:58:00,
2013-02-06 21:03:00,24.9,20.5,29.95,WNW,283,2.0,2.0,83,0.00,,,0.00,0,Wunderground v.1.15,2013-02-07 04:03:00,
2013-02-06 21:08:00,24.7,20.3,29.95,WNW,283,0.0,2.0,83,0.00,,,0.00,0,Wunderground v.1.15,2013-02-07 04:08:00,
2013-02-06 21:13:00,24.8,20.4,29.95,WNW,283,0.0,0.0,83,0.00,,,0.00,0,Wunderground v.1.15,2013-02-07 04:13:00,
2013-02-06 21:18:00,24.6,20.2,29.95,WNW,284,2.0,4.0,83,0.00,,,0.00,0,Wunderground v.1.15,2013-02-07 04:18:00,
2013-02-06 21:23:00,24.4,20.0,29.95,WNW,283,0.0,1.0,83,0.00,,,0.00,0,Wunderground v.1.15,2013-02-07 04:23:00,
2013-02-06 21:28:00,24.3,19.9,29.95,WNW,284,0.0,1.0,83,0.00,,,0.00,0,Wunderground v.1.15,2013-02-07 04:28:00,
2013-02-06 21:33:00,24.3,19.9,29.96,WNW,283,0.0,0.0,83,0.00,,,0.00,0,Wunderground v.1.15,2013-02-07 04:33:00,
2013-02-06 21:38:00,24.3,20.2,29.96,WNW,284,0.0,2.0,84,0.00,,,0.00,0,Wunderground v.1.15,2013-02-07 04:38:00,
2013-02-06 21:43:00,24.3,20.2,29.96,WNW,283,0.0,0.0,84,0.00,,,0.00,0,Wunderground v.1.15,2013-02-07 04:43:00,
2013-02-06 21:48:00,24.2,20.1,29.96,WNW,283,0.0,0.0,84,0.00,,,0.00,0,Wunderground v.1.15,2013-02-07 04:48:00,
2013-02-06 21:53:00,24.1,20.0,29.96,WNW,284,0.0,0.0,84,0.00,,,0.00,0,Wunderground v.1.15,2013-02-07 04:53:00,
2013-02-06 21:58:00,23.9,19.8,29.96,WNW,283,0.0,0.0,84,0.00,,,0.00,0,Wunderground v.1.15,2013-02-07 04:58:00,
2013-02-06 22:00:00,23.9,19.8,29.96,WNW,283,0.0,0.0,84,0.00,,,0.00,0,Wunderground v.1.15,2013-02-07 05:00:00,
2013-02-06 22:02:00,23.9,19.8,29.96,WNW,284,0.0,0.0,84,0.00,,,0.00,0,Wunderground v.1.15,2013-02-07 05:02:00,
2013-02-06 22:07:00,23.5,19.4,29.96,WNW,283,0.0,2.0,84,0.00,,,0.00,0,Wunderground v.1.15,2013-02-07 05:07:00,
2013-02-06 22:12:00,23.3,19.2,29.96,WNW,284,0.0,0.0,84,0.00,,,0.00,0,Wunderground v.1.15,2013-02-07 05:12:00,
2013-02-06 22:17:00,23.2,19.1,29.96,WNW,283,0.0,0.0,84,0.00,,,0.00,0,Wunderground v.1.15,2013-02-07 05:17:00,
2013-02-06 22:22:00,23.1,19.0,29.96,WNW,284,0.0,0.0,84,0.00,,,0.00,0,Wunderground v.1.15,2013-02-07 05:22:00,
2013-02-06 22:27:00,22.7,18.6,29.96,WNW,283,0.0,1.0,84,0.00,,,0.00,0,Wunderground v.1.15,2013-02-07 05:27:00,
2013-02-06 22:32:00,22.2,18.1,29.97,WNW,284,0.0,0.0,84,0.00,,,0.00,0,Wunderground v.1.15,2013-02-07 05:32:00,
2013-02-06 22:37:00,22.1,18.0,29.97,WNW,283,0.0,0.0,84,0.00,,,0.00,0,Wunderground v.1.15,2013-02-07 05:37:00,
2013-02-06 22:42:00,22.0,17.9,29.97,WNW,283,0.0,0.0,84,0.00,,,0.00,0,Wunderground v.1.15,2013-02-07 05:42:00,
2013-02-06 22:47:00,22.2,18.4,29.96,WNW,283,0.0,0.0,85,0.00,,,0.00,0,Wunderground v.1.15,2013-02-07 05:47:00,
2013-02-06 22:52:00,22.3,18.5,29.96,WNW,284,0.0,0.0,85,0.00,,,0.00,0,Wunderground v.1.15,2013-02-07 05:52:00,
2013-02-06 22:57:00,22.4,18.6,29.96,WNW,283,0.0,0.0,85,0.00,,,0.00,0,Wunderground v.1.15,2013-02-07 05:57:00,
2013-02-06 23:03:00,22.4,18.8,29.96,WNW,283,0.0,0.0,86,0.00,,,0.00,0,Wunderground v.1.15,2013-02-07 06:03:00,
2013-02-06 23:08:00,22.0,18.2,29.96,WNW,283,0.0,0.0,85,0.00,,,0.00,0,Wunderground v.1.15,2013-02-07 06:08:00,
2013-02-06 23:13:00,21.8,18.0,29.96,WNW,283,0.0,0.0,85,0.00,,,0.00,0,Wunderground v.1.15,2013-02-07 06:13:00,
2013-02-06 23:18:00,21.7,17.9,29.96,WNW,284,0.0,0.0,85,0.00,,,0.00,0,Wunderground v.1.15,2013-02-07 06:18:00,
2013-02-06 23:23:00,21.7,18.2,29.96,WNW,283,1.0,2.0,86,0.00,,,0.00,0,Wunderground v.1.15,2013-02-07 06:23:00,
2013-02-06 23:28:00,21.6,18.1,29.96,WNW,284,0.0,2.0,86,0.00,,,0.00,0,Wunderground v.1.15,2013-02-07 06:28:00,
2013-02-06 23:33:00,21.7,18.2,29.96,WNW,283,0.0,0.0,86,0.00,,,0.00,0,Wunderground v.1.15,2013-02-07 06:33:00,
2013-02-06 23:38:00,21.7,18.2,29.96,WNW,284,0.0,0.0,86,0.00,,,0.00,0,Wunderground v.1.15,2013-02-07 06:38:00,
2013-02-06 23:43:00,21.9,18.4,29.96,WNW,283,0.0,1.0,86,0.00,,,0.00,0,Wunderground v.1.15,2013-02-07 06:43:00,
2013-02-06 23:48:00,21.9,18.4,29.96,WNW,283,0.0,1.0,86,0.00,,,0.00,0,Wunderground v.1.15,2013-02-07 06:48:00,
2013-02-06 23:53:00,22.0,18.7,29.96,WNW,284,0.0,0.0,87,0.00,,,0.00,0,Wunderground v.1.15,2013-02-07 06:53:00,
2013-02-06 23:58:00,21.9,18.6,29.96,WNW,283,0.0,0.0,87,0.00,,,0.00,0,Wunderground v.1.15,2013-02-07 06:58:00,